This demonstration page uses our WeatherBlox Daily Observations layout. Learn more.

Left ArrowRight Arrow

Hourly Observations for December 13, 2019

Temp ( °F °C ) Dew Point ( °F °C ) Humidity (%) Winds ( mph kmh ) Pressure ( in mb ) Visibility ( mi km ) Precip ( " mm )
12:53 am 00:53 Clear 15 -9.4 12 -11.1 88 88 NW 12 19 29.93 1014 10 16 0.00 0.00
1:53 am 01:53 Clear 11 -11.7 6 -14.4 81 81 W 10 17 29.98 1015 9 14 0.00 0.00
2:53 am 02:53 Partly Cloudy 9 -12.8 4 -15.6 80 80 W 6 9 30.02 1017 10 16 0.00 0.00
3:04 am 03:04 Mostly Cloudy 7 -13.9 3 -16.1 84 84 SW 6 9 30.16 1021 9 14 0.00 0.00
3:53 am 03:53 Cloudy with Mist and Fog 6 -14.4 2 -16.7 83 83 SW 9 15 30.05 1018 3 5 0.00 0.00
4:07 am 04:07 Cloudy with Mist and Fog 7 -13.9 4 -15.6 87 87 SW 8 13 30.19 1022 4 6 0.00 0.00
4:53 am 04:53 Cloudy with Haze 10 -12.2 5 -15 80 80 SSW 7 11 30.06 1018 5 8 0.00 0.00
5:53 am 05:53 Cloudy 11 -11.7 6 -14.4 81 81 S 3 6 30.06 1018 10 16 0.00 0.00
6:53 am 06:53 Cloudy 11 -11.7 7 -13.9 84 84 WSW 3 6 30.10 1019 10 16 0.00 0.00
7:53 am 07:53 Cloudy 12 -11.1 7 -13.9 80 80 Calm 30.11 1020 9 14 0.00 0.00
8:53 am 08:53 Cloudy 14 -10 8 -13.3 77 77 NNW 5 7 30.14 1021 7 11 0.00 0.00
9:53 am 09:53 Cloudy with Haze 14 -10 9 -12.8 80 80 N 7 11 30.15 1021 5 8 0.00 0.00
10:53 am 10:53 Cloudy with Haze 15 -9.4 10 -12.2 80 80 N 6 9 30.15 1021 5 8 0.00 0.00
11:27 am 11:27 Cloudy with Mist and Fog 15 -9.4 11 -11.7 84 84 NNE 5 7 30.22 1024 5 8 0.00 0.00
11:50 am 11:50 Cloudy with Haze 16 -9 10 -12 79 79 NE 7 11 30.20 1023 5 8 0.00 0.00
11:53 am 11:53 Cloudy with Haze 16 -8.9 11 -11.7 80 80 NNE 6 9 30.15 1021 5 8 0.00 0.00
12:53 pm 12:53 Cloudy 17 -8.3 11 -11.7 77 77 ENE 5 7 30.14 1021 8 13 0.00 0.00
1:53 pm 13:53 Cloudy with Light Snow 16 -8.9 10 -12.2 77 77 NE 6 9 30.14 1021 5 8 0.00 0.00
2:42 pm 14:42 Cloudy with Light Snow 16 -9 10 -12 79 79 ENE 6 9 30.21 1023 3 4 0.00 0.00
2:50 pm 14:50 Cloudy with Light Snow 16 -9 10 -12 79 79 NE 7 11 30.20 1023 3 5 0.00 0.00
2:53 pm 14:53 Cloudy with Light Snow 16 -8.9 10 -12.2 77 77 NE 7 11 30.15 1021 3 5 0.01 0.25
3:08 pm 15:08 Cloudy with Light Snow 17 -8.3 11 -11.7 77 77 ENE 7 11 30.20 1023 3 4 0.00 0.00
3:33 pm 15:33 Cloudy with Light Snow 17 -8.3 11 -11.7 77 77 ENE 9 15 30.19 1022 2 3 0.00 0.00
3:53 pm 15:53 Cloudy with Light Snow 16 -8.9 11 -11.7 80 80 ENE 9 15 30.15 1021 3 5 0.00 0.00
4:02 pm 16:02 Cloudy with Light Snow 16 -8.9 11 -11.7 80 80 ENE 10 17 30.20 1023 3 4 0.00 0.00
4:17 pm 16:17 Cloudy with Light Snow 16 -8.9 11 -11.7 80 80 ENE 9 15 30.20 1023 2 3 0.00 0.00
4:32 pm 16:32 Cloudy with Light Snow 16 -8.9 10 -12.2 77 77 E 14 22 30.20 1023 3 5 0.01 0.25
4:50 pm 16:50 Cloudy with Light Snow 16 -9 10 -12 79 79 E 12 19 30.20 1023 2 3 0.01 0.25
4:53 pm 16:53 Cloudy with Light Snow 15 -9.4 10 -12.2 80 80 E 13 20 30.14 1021 2 3 0.01 0.25
5:07 pm 17:07 Cloudy with Light Snow 16 -9 10 -12 79 79 E 12 19 30.20 1023 3 4 0.00 0.00
5:15 pm 17:15 Cloudy with Light Snow 14 -10 9 -12.8 80 80 E 12 19 30.21 1023 5 8 0.00 0.00
5:53 pm 17:53 Cloudy with Light Snow 14 -10 9 -12.8 80 80 E 15 24 30.13 1020 5 8 0.00 0.00
6:53 pm 18:53 Cloudy with Light Snow 13 -10.6 9 -12.8 84 84 ENE 14 22 30.13 1020 3 5 0.00 0.00
7:17 pm 19:17 Cloudy with Light Snow 13 -10.6 9 -12.8 84 84 ENE 13 20 30.20 1023 3 4 0.01 0.25
7:26 pm 19:26 Cloudy with Light Snow 13 -10.6 9 -12.8 84 84 ENE 15 24 30.19 1022 2 3 0.01 0.25
7:53 pm 19:53 Cloudy with Light Snow 13 -10.6 9 -12.8 84 84 E 17 28 30.11 1020 2 3 0.01 0.25
8:17 pm 20:17 Cloudy with Light Snow 12 -11.1 8 -13.3 84 84 E 17 28 30.18 1022 2 3 0.00 0.00
8:43 pm 20:43 Cloudy with Light Snow 12 -11.1 8 -13.3 84 84 E 15 24 30.17 1022 3 4 0.01 0.25
8:51 pm 20:51 Cloudy with Light Snow 12 -11 9 -13 85 85 E 15 24 30.17 1022 4 6 0.01 0.25
8:53 pm 20:53 Cloudy with Light Snow 12 -11.1 8 -13.3 84 84 E 15 24 30.09 1019 3 5 0.01 0.25
9:05 pm 21:05 Cloudy with Light Snow 12 -11.1 8 -13.3 84 84 E 14 22 30.17 1022 2 3 0.00 0.00
9:14 pm 21:14 Cloudy with Light Snow 12 -11.1 8 -13.3 84 84 E 14 22 30.17 1022 2 3 0.00 0.00
9:25 pm 21:25 Cloudy with Light Snow 12 -11.1 8 -13.3 84 84 E 14 22 30.17 1022 1 2 0.01 0.25
9:37 pm 21:37 Cloudy with Light Snow 12 -11.1 8 -13.3 84 84 E 14 22 30.17 1022 2 3 0.01 0.25
9:45 pm 21:45 Cloudy with Light Snow 12 -11.1 8 -13.3 84 84 E 13 20 30.17 1022 2 3 0.01 0.25
9:53 pm 21:53 Cloudy with Light Snow 12 -11.1 8 -13.3 84 84 E 12 19 30.09 1019 2 3 0.01 0.25
10:06 pm 22:06 Mostly Cloudy with Light Snow 12 -11.1 8 -13.3 84 84 E 15 24 30.16 1021 1 2 0.01 0.25
10:51 pm 22:51 Mostly Cloudy with Light Snow 10 -12 7 -14 85 85 E 12 19 30.17 1022 1 2 0.03 0.76
10:53 pm 22:53 Mostly Cloudy with Light Snow 11 -11.7 7 -13.9 84 84 E 10 17 30.08 1019 1 2 0.03 0.76
11:06 pm 23:06 Cloudy with Light Snow 11 -11.7 7 -13.9 84 84 ENE 12 19 30.16 1021 1 2 0.01 0.25
11:13 pm 23:13 Cloudy with Light Snow 11 -11.7 7 -13.9 84 84 ENE 10 17 30.16 1021 2 3 0.01 0.25
11:28 pm 23:28 Cloudy with Light Snow 11 -11.7 7 -13.9 84 84 E 10 17 30.16 1021 2 3 0.01 0.25
11:45 pm 23:45 Cloudy with Light Snow 11 -11.7 7 -13.9 84 84 ENE 10 17 30.16 1021 2 3 0.02 0.51
11:53 pm 23:53 Cloudy with Light Snow 11 -11.7 7 -13.9 84 84 ENE 10 17 30.06 1018 2 2 0.02 0.51

Powered by AerisWeather